Location: Brede
(50.9167°N, 0.6000°E)
Time: 19:01:07
(UTC+00:00)

Vanguard 1 Rocket - Pass Details

Date: 27 November 2020
Orbit: 655 x 4221 km, 34.3° (Epoch: 17 January)

Event Time Altitude Azimuth Distance (km) Brightness Sun altitude
Exits shadow 00:54:29 28° 126° (SE) 5,215 11.0 -57.3°
Drops below altitude 10° 01:03:41 10° 98° (E) 5,787 11.6 -56.5°
Sets 01:08:01 0° 89° (E) 6,347 12.0 -56.1°
